Regional Weather Roundup
Issued by NWS

Home | Current Version | Previous Version | Text Only | Print | Product List | Glossary Off
Versions: 1 2 3 4 5 6 7 8 9 10 11 12 13 14 15 16 17 18 19 20 21 22 23 24 25 26 27 28 29 30 31 32 33 34 35 36 37 38 39 40 41 42 43 44 45 46 47 48 49 50

000
ASUS45 KPSR 051000
RWRAZ

ARIZONA REGIONAL HOURLY WEATHER ROUNDUP
NATIONAL WEATHER SERVICE PHOENIX AZ
300 AM MST THU MAR 05 2015

NOTE: FAIR INDICATES FEW OR NO CLOUDS BELOW 12,000 FEET WITH NO
SIGNIFICANT WEATHER AND/OR OBSTRUCTIONS TO VISIBILITY.

AZZ001>003-036-051100-
NORTHWEST ARIZONA

CITY           SKY/WX    TMP DP  RH WIND       PRES   REMARKS
KINGMAN        CLEAR     34  26  72 E9        30.28S WCI  27
$$

AZZ004>008-015-016-018-051100-
NORTH CENTRAL ARIZONA

CITY           SKY/WX    TMP DP  RH WIND       PRES   REMARKS
GRAND CANYON   PTCLDY     6   3  87 E3        30.31R
PRESCOTT       CLEAR     28  17  63 S7        30.27S WCI  21
FLAGSTAFF      NOT AVBL
PAYSON         CLEAR     36  10  35 VRB5G12   30.26S WCI  32
PAGE           CLEAR     34  21  59 CALM      30.32S
$$

AZZ009>014-017-051100-
NORTHEAST ARIZONA

CITY           SKY/WX    TMP DP  RH WIND       PRES   REMARKS
WINSLOW        NOT AVBL
SAINT JOHNS    CLEAR     18  13  80 S5        30.29R WCI  11
WINDOW ROCK    CLEAR     19  13  77 CALM      30.29S
SHOW LOW       CLEAR     19  14  79 N3        30.31R
$$

AZZ023-051100-
GREATER PHOENIX AREA

CITY           SKY/WX    TMP DP  RH WIND       PRES   REMARKS
PHOENIX        CLEAR     51  39  63 CALM      30.17S
DEER VALLEY    CLEAR     48  28  46 CALM      30.19R
SCOTTSDALE     CLEAR     51  25  36 NW8       30.20R
$$

AZZ027-028-051100-
SOUTHWEST MARICOPA COUNTY AND PINAL COUNTY

CITY           SKY/WX    TMP DP  RH WIND       PRES   REMARKS
CASA GRANDE    CLEAR     46  34  61 NW3       30.18S
$$

AZZ503-504-507>509-051100-
SOUTHEAST ARIZONA

CITY           SKY/WX    TMP DP  RH WIND       PRES   REMARKS
TUCSON         CLEAR     44  36  73 SE5       30.19S
NOGALES        CLEAR     36  29  75 S6        30.18R WCI  31
SIERRA VISTA   CLEAR     39  30  70 S7        30.19S WCI  34
SAFFORD        CLEAR     41  22  46 CALM      30.20R
$$

AZZ020-021-025-026-031-051100-
SOUTHWEST ARIZONA

CITY           SKY/WX    TMP DP  RH WIND       PRES   REMARKS
YUMA           NOT AVBL
$$

CAZ031-033-041-043-047-048-061-051100-
SOUTHERN CALIFORNIA

CITY           SKY/WX    TMP DP  RH WIND       PRES   REMARKS
DOWNTOWN L.A.  CLEAR     53  38  56 CALM      30.17R
L.A. AIRPORT   PTCLDY    55  38  52 N6        30.17S
SAN DIEGO      PTCLDY    54  42  64 CALM      30.18S
BURBANK        CLEAR     48  29  47 CALM      30.17R
ONTARIO        MOCLDY    49  34  56 CALM      30.18S
RIVERSIDE      CLEAR     48  27  44 NE8       30.19R
PALM SPRINGS   CLEAR     56  22  26 W7        30.23S
EL CENTRO NAS  CLEAR     45  35  68 W7        30.19S
IMPERIAL       CLEAR     45  36  70 W6        30.18S
BLYTHE         CLEAR     49  36  61 E3        30.22R
$$

NVZ020-UTZ003-051100-
SOUTHERN NEVADA-UTAH

CITY           SKY/WX    TMP DP  RH WIND       PRES   REMARKS
LAS VEGAS      NOT AVBL
SALT LAKE CITY CLEAR     29  17  61 S9        30.36S WCI  20
$$

NMZ009-TXZ055-051100-
NEW MEXICO-WEST TEXAS

CITY           SKY/WX    TMP DP  RH WIND       PRES   REMARKS
ALBUQUERQUE    CLEAR     25  18  74 N6        30.33R WCI  18
EL PASO        MOCLDY    34  24  67 E18       30.31R WCI  23
$$


........................KEY........................
SKY/WX - SKY CONDITION/WEATHER
TMP    - TEMPERATURE IN FAHRENHEIT
DP     - DEW POINT IN FAHRENHEIT
RH     - RELATIVE HUMIDITY IN PERCENT
WIND   - DIRECTION AND SPEED IN MILES PER HOUR (MPH)
VRB    - VARIABLE WIND DIRECTION
PRES   - MEAN SEA LEVEL PRESSURE IN INCHES OF MERCURY
         F - FALLING PRESSURE   R - RISING PRESSURE
         S - STEADY PRESSURE
VSB    - VISIBILITY IN MILES
HX     - HEAT INDEX IN FAHRENHEIT
WCI    - WIND CHILL INDEX IN FAHRENHEIT
TC     - TEMPERATURE IN CELSIUS WHICH IS ALSO KNOWN AS
         TEMPERATURE IN CENTIGRADE
AFB    - AIR FORCE BASE
         LUKE AFB IS LUKE AIR FORCE BASE
         DAVIS-MONTHAN IS DAVIS-MONTHAN AIR FORCE BASE
NAS    - NAVAL AIR STATION
         EL CENTRO NAS IS EL CENTRO NAVAL AIR STATION
N/A    - NOT AVAILABLE




USA.gov is the U.S. government's official web portal to all federal, state and local government web resources and services.